When you browse on this site, cookies collect data to enhance your experience and personalize the content and advertising you see.
Visit our Privacy Policy to learn more. By continuing to use the site, you agree to this use of cookies and data.
  • In Hungary
  • List of Countries
  • For 7 days
  • Water Temperature
  • Satellite Maps
  • Weather Map
  • News
  • Weather Widgets
  • user-avatar
    Login

    Hourly Weather Portoveho

    Today, 12 December, Wednesday

    Time Temperature Precipitation Wind Pressure Humidity
    00:00 +28°C° 0.1 mm 2 mps 753 mmHg 67%
    01:00 +28°C° 0 mm 1 mps 753 mmHg 68%
    02:00 +28°C° 0.2 mm 1 mps 753 mmHg 70%
    03:00 +27°C° 0.2 mm 1 mps 753 mmHg 71%
    04:00 +27°C° 0.2 mm 1 mps 752 mmHg 73%
    05:00 +27°C° 0.1 mm 1 mps 753 mmHg 73%
    06:00 +27°C° 0.1 mm 1 mps 753 mmHg 74%
    07:00 +27°C° 0.1 mm 1 mps 753 mmHg 74%
    08:00 +28°C° 0 mm 2 mps 753 mmHg 70%
    09:00 +29°C° 0 mm 2 mps 753 mmHg 65%
    10:00 +30°C° 0 mm 2 mps 754 mmHg 60%
    11:00 +31°C° 0 mm 2 mps 753 mmHg 56%
    12:00 +34°C° 0 mm 3 mps 753 mmHg 52%
    13:00 +35°C° 0 mm 3 mps 752 mmHg 48%
    14:00 +34°C° 0 mm 4 mps 752 mmHg 49%
    15:00 +34°C° 0 mm 4 mps 751 mmHg 49%
    16:00 +34°C° 0 mm 4 mps 751 mmHg 50%
    17:00 +33°C° 0 mm 4 mps 751 mmHg 55%
    18:00 +32°C° 0 mm 4 mps 752 mmHg 61%
    19:00 +29°C° 0 mm 3 mps 752 mmHg 66%
    20:00 +29°C° 0 mm 3 mps 753 mmHg 69%
    21:00 +28°C° 0 mm 3 mps 753 mmHg 71%
    22:00 +28°C° 0 mm 3 mps 754 mmHg 74%
    23:00 +28°C° 0.1 mm 3 mps 754 mmHg 75%

    Tomorrow, 13 December, Thursday

    Time Temperature Precipitation Wind Pressure Humidity
    00:00 +27°C° 0.1 mm 3 mps 754 mmHg 76%
    01:00 +27°C° 0.1 mm 3 mps 754 mmHg 77%
    02:00 +27°C° 0.2 mm 3 mps 753 mmHg 77%
    03:00 +27°C° 0.2 mm 3 mps 753 mmHg 78%
    04:00 +27°C° 0.2 mm 3 mps 753 mmHg 78%
    05:00 +27°C° 0.3 mm 3 mps 753 mmHg 79%
    06:00 +27°C° 0.3 mm 3 mps 753 mmHg 79%
    07:00 +27°C° 0.3 mm 3 mps 753 mmHg 79%
    08:00 +28°C° 0.1 mm 3 mps 754 mmHg 74%
    09:00 +29°C° 0.1 mm 3 mps 754 mmHg 69%
    10:00 +30°C° 0.1 mm 3 mps 754 mmHg 65%
    11:00 +31°C° 0 mm 3 mps 754 mmHg 60%
    12:00 +33°C° 0 mm 3 mps 753 mmHg 55%
    13:00 +35°C° 0 mm 3 mps 752 mmHg 51%
    14:00 +34°C° 0.4 mm 3 mps 752 mmHg 52%
    15:00 +34°C° 0.4 mm 4 mps 751 mmHg 54%
    16:00 +34°C° 0.4 mm 4 mps 751 mmHg 55%
    17:00 +32°C° 0.7 mm 4 mps 751 mmHg 60%
    18:00 +30°C° 0.7 mm 4 mps 752 mmHg 65%
    19:00 +29°C° 0.7 mm 4 mps 752 mmHg 70%
    20:00 +28°C° 0.4 mm 3 mps 753 mmHg 71%
    21:00 +28°C° 0.4 mm 3 mps 753 mmHg 73%
    22:00 +28°C° 0.4 mm 3 mps 754 mmHg 75%
    23:00 +27°C° 1.2 mm 3 mps 754 mmHg 76%

    Day after tomorrow, 14 December, Friday

    Time Temperature Precipitation Wind Pressure Humidity
    00:00 +27°C° 1.2 mm 3 mps 754 mmHg 78%
    01:00 +27°C° 1.2 mm 2 mps 753 mmHg 79%
    02:00 +27°C° 2.7 mm 2 mps 753 mmHg 81%
    03:00 +26°C° 2.7 mm 2 mps 753 mmHg 83%
    04:00 +26°C° 2.7 mm 2 mps 753 mmHg 85%
    05:00 +26°C° 2 mm 2 mps 753 mmHg 85%
    06:00 +26°C° 2 mm 2 mps 753 mmHg 86%
    07:00 +26°C° 2 mm 2 mps 753 mmHg 86%
    08:00 +26°C° 1 mm 2 mps 754 mmHg 86%
    09:00 +26°C° 1 mm 1 mps 754 mmHg 85%
    10:00 +26°C° 1 mm 1 mps 755 mmHg 84%
    11:00 +27°C° 0.2 mm 1 mps 754 mmHg 81%
    12:00 +28°C° 0.2 mm 2 mps 754 mmHg 77%
    13:00 +29°C° 0.2 mm 2 mps 753 mmHg 73%
    14:00 +29°C° 0.3 mm 2 mps 753 mmHg 74%
    15:00 +29°C° 0.3 mm 2 mps 752 mmHg 75%
    16:00 +28°C° 0.3 mm 2 mps 751 mmHg 76%
    17:00 +28°C° 0.2 mm 2 mps 752 mmHg 78%
    18:00 +28°C° 0.2 mm 2 mps 752 mmHg 80%
    19:00 +27°C° 0.2 mm 2 mps 752 mmHg 81%
    20:00 +27°C° 0.2 mm 2 mps 753 mmHg 82%
    21:00 +27°C° 0.2 mm 2 mps 754 mmHg 83%
    22:00 +27°C° 0.2 mm 1 mps 754 mmHg 83%
    23:00 +27°C° 0.1 mm 2 mps 754 mmHg 84%

    15 December, Saturday

    Time Temperature Precipitation Wind Pressure Humidity
    00:00 +27°C° 0.1 mm 2 mps 754 mmHg 84%
    01:00 +27°C° 0.1 mm 2 mps 753 mmHg 85%
    02:00 +26°C° 0.2 mm 2 mps 753 mmHg 85%
    03:00 +26°C° 0.2 mm 2 mps 753 mmHg 86%
    04:00 +26°C° 0.2 mm 2 mps 752 mmHg 86%
    05:00 +26°C° 0.2 mm 2 mps 753 mmHg 86%
    06:00 +26°C° 0.2 mm 2 mps 753 mmHg 86%
    07:00 +26°C° 0.2 mm 2 mps 753 mmHg 85%
    08:00 +27°C° 0 mm 2 mps 754 mmHg 80%
    09:00 +29°C° 0 mm 2 mps 754 mmHg 75%
    10:00 +30°C° 0 mm 2 mps 754 mmHg 70%
    11:00 +30°C° 0.1 mm 2 mps 754 mmHg 67%
    12:00 +31°C° 0.1 mm 2 mps 753 mmHg 64%
    13:00 +32°C° 0.1 mm 2 mps 753 mmHg 61%
    14:00 +31°C° 0.5 mm 3 mps 752 mmHg 63%
    15:00 +31°C° 0.5 mm 3 mps 751 mmHg 64%
    16:00 +31°C° 0.5 mm 3 mps 751 mmHg 66%
    17:00 +30°C° 0.6 mm 3 mps 751 mmHg 70%
    18:00 +29°C° 0.6 mm 3 mps 752 mmHg 74%
    19:00 +28°C° 0.6 mm 3 mps 752 mmHg 78%
    20:00 +28°C° 0.5 mm 2 mps 753 mmHg 79%
    21:00 +28°C° 0.5 mm 2 mps 754 mmHg 81%
    22:00 +28°C° 0.5 mm 2 mps 754 mmHg 82%
    23:00 +27°C° 0.7 mm 2 mps 754 mmHg 83%

    16 December, Sunday

    Time Temperature Precipitation Wind Pressure Humidity
    00:00 +27°C° 0.7 mm 2 mps 754 mmHg 84%
    01:00 +27°C° 0.7 mm 2 mps 753 mmHg 85%
    02:00 +27°C° 0.5 mm 2 mps 753 mmHg 85%
    03:00 +27°C° 0.5 mm 2 mps 753 mmHg 86%
    04:00 +26°C° 0.5 mm 2 mps 752 mmHg 86%
    05:00 +26°C° 0.4 mm 2 mps 753 mmHg 86%
    06:00 +27°C° 0.4 mm 2 mps 753 mmHg 86%
    07:00 +27°C° 0.4 mm 2 mps 754 mmHg 85%
    08:00 +27°C° 0.1 mm 2 mps 754 mmHg 80%
    09:00 +28°C° 0.1 mm 2 mps 754 mmHg 75%
    10:00 +29°C° 0.1 mm 2 mps 754 mmHg 70%
    11:00 +30°C° 0.1 mm 2 mps 754 mmHg 66%
    12:00 +31°C° 0.1 mm 3 mps 753 mmHg 61%
    13:00 +33°C° 0.1 mm 3 mps 752 mmHg 57%
    14:00 +33°C° 0.2 mm 3 mps 752 mmHg 57%
    15:00 +33°C° 0.2 mm 3 mps 751 mmHg 58%
    16:00 +33°C° 0.2 mm 4 mps 751 mmHg 59%
    17:00 +32°C° 0.3 mm 4 mps 751 mmHg 64%
    18:00 +30°C° 0.3 mm 3 mps 752 mmHg 69%
    19:00 +29°C° 0.3 mm 3 mps 752 mmHg 75%
    20:00 +28°C° 0.2 mm 3 mps 753 mmHg 77%
    21:00 +28°C° 0.2 mm 3 mps 754 mmHg 79%
    22:00 +28°C° 0.2 mm 3 mps 754 mmHg 81%
    23:00 +27°C° 0.2 mm 3 mps 754 mmHg 82%

    17 December, Monday

    Time Temperature Precipitation Wind Pressure Humidity
    00:00 +27°C° 0.2 mm 3 mps 753 mmHg 83%
    01:00 +27°C° 0.2 mm 3 mps 753 mmHg 83%
    02:00 +27°C° 0.4 mm 3 mps 753 mmHg 84%
    03:00 +27°C° 0.4 mm 3 mps 753 mmHg 85%
    04:00 +26°C° 0.4 mm 2 mps 752 mmHg 85%
    05:00 +26°C° 0.2 mm 2 mps 753 mmHg 85%
    06:00 +26°C° 0.2 mm 2 mps 753 mmHg 85%
    07:00 +26°C° 0.2 mm 2 mps 754 mmHg 85%
    08:00 +28°C° 0.1 mm 2 mps 754 mmHg 81%
    09:00 +29°C° 0.1 mm 1 mps 754 mmHg 76%
    10:00 +30°C° 0.1 mm 1 mps 754 mmHg 71%
    11:00 +30°C° 0 mm 2 mps 753 mmHg 68%
    12:00 +31°C° 0 mm 2 mps 753 mmHg 65%
    13:00 +32°C° 0 mm 2 mps 752 mmHg 62%
    14:00 +32°C° 0.4 mm 2 mps 752 mmHg 63%
    15:00 +31°C° 0.4 mm 3 mps 751 mmHg 64%
    16:00 +31°C° 0.4 mm 3 mps 750 mmHg 65%
    17:00 +30°C° 0.6 mm 3 mps 751 mmHg 70%
    18:00 +29°C° 0.6 mm 3 mps 751 mmHg 74%
    19:00 +28°C° 0.6 mm 3 mps 752 mmHg 79%
    20:00 +28°C° 0.5 mm 3 mps 753 mmHg 80%
    21:00 +28°C° 0.5 mm 3 mps 753 mmHg 82%
    22:00 +27°C° 0.5 mm 2 mps 754 mmHg 84%
    23:00 +27°C° 0.4 mm 2 mps 753 mmHg 85%
    Show more